Location: Krakow
(50.0830°N, 19.9170°E)
Time: 17:18:23
(UTC+02:00)

Courier 1B - Pass Details

Date: 17 March 2026
Orbit: 962 x 1209 km, 28.3° (Epoch: 19 April)

Event Time Altitude Azimuth Distance (km) Brightness Sun altitude
Rises 10:53:14 0° 233° (SW) 3,892 10.9 37.3°
Reaches altitude 10° 10:59:07 10° 196° (SSW) 2,856 10.9 37.6°
Maximum altitude 11:00:14 10° 187° (S) 2,810 11.0 37.6°
Drops below altitude 10° 11:01:21 10° 177° (S) 2,826 11.2 37.7°
Sets 11:06:59 0° 140° (SE) 3,710 11.3 37.9°
